Home   Weather   Township of Fairfield   Past weeks
Flag for USA

Past Weather in Township of Fairfield, Michigan, USA — Yesterday and Last 2 Weeks

Now
42 °F

More clouds than sun.


Feels Like: 37 °F
Forecast: 42 / 31 °F
Wind: 8 mph from West

Location: Toledo Suburban Airport

Current Time: Dec 5, 2019 at 2:44:52 pm

Latest Report: Dec 5, 2019 at 2:16 pm


Visibility: 10 mi

Pressure: 30.03 "Hg

Humidity: 60%

Dew Point: 29 °F

Location of Township of FairfieldLocation

Past Weather in Township of Fairfield — Graph

°F

Township of Fairfield Temperature Yesterday

Maximum temperature yesterday: 40 °F (at 11:55 am)
Minimum temperature yesterday: 35 °F (at 10:16 pm)
Average temperature yesterday: 37 °F

High & Low Weather Summary for the Past Weeks

 TemperatureHumidityPressure
High59 °F (Nov 27, 9:56 am)92% (Dec 1, 9:55 am)30.46 "Hg (Dec 1, 9:55 am)
Low22 °F (Nov 23, 7:35 am)50% (Nov 22, 2:16 pm)29.30 "Hg (Dec 1, 8:15 am)
Average40 °F76%29.86 "Hg
* Reported Nov 20 1:35 pm — Dec 5 1:35 pm, Township of Fairfield. Weather by CustomWeather, © 2019

Note: Actual official high and low records may vary slightly from our data, if they occured in-between our weather recording intervals... More about our weather records

Township of Fairfield Weather History for the Previous 24 Hours

Scroll right to see more
 ConditionsComfort  
Time TempWeatherWind HumidityBarometerVisibility
1:35 pm
Thu, Dec 5
41 °FMore clouds than sun.8 mph60%30.03 "Hg10 mi
1:16 pm41 °FMore clouds than sun.9 mph60%30.04 "Hg10 mi
12:55 pm41 °FBroken clouds.9 mph60%30.04 "Hg10 mi
12:36 pm40 °FBroken clouds.8 mph60%30.04 "Hg10 mi
12:15 pm41 °FMore clouds than sun.10 mph61%30.04 "Hg10 mi
11:56 am40 °FOvercast.12 mph61%30.04 "Hg10 mi
11:36 am40 °FScattered clouds.8 mph61%30.04 "Hg10 mi
11:16 am40 °FSunny.13 mph62%30.04 "Hg10 mi
10:55 am39 °FSunny.7 mph62%30.04 "Hg10 mi
10:36 am38 °FSunny.10 mph64%30.04 "Hg10 mi
10:15 am38 °FScattered clouds.8 mph66%30.03 "Hg10 mi
9:35 am35 °FOvercast.8 mph72%30.03 "Hg10 mi
9:16 am35 °FPartly sunny.8 mph71%30.02 "Hg10 mi
8:55 am35 °FSunny.9 mph71%30.00 "Hg10 mi
8:35 am34 °FScattered clouds.6 mph72%30.00 "Hg10 mi
8:16 am33 °FScattered clouds.6 mph75%29.99 "Hg10 mi
7:55 am33 °FScattered clouds.3 mph75%29.98 "Hg10 mi
7:35 am33 °FPassing clouds.6 mph74%29.97 "Hg10 mi
7:16 am33 °FClear.7 mph72%29.96 "Hg10 mi
6:56 am34 °FPassing clouds.7 mph72%29.94 "Hg10 mi
6:35 am35 °FPassing clouds.7 mph70%29.93 "Hg10 mi
6:16 am35 °FMostly cloudy.6 mph70%29.93 "Hg10 mi
5:55 am35 °FOvercast.6 mph71%29.92 "Hg10 mi
5:35 am34 °FPassing clouds.6 mph73%29.92 "Hg10 mi
5:16 am34 °FPassing clouds.6 mph72%29.90 "Hg10 mi
4:55 am34 °FOvercast.6 mph71%29.90 "Hg10 mi
4:35 am35 °FOvercast.5 mph71%29.90 "Hg10 mi
4:15 am35 °FOvercast.5 mph71%29.89 "Hg10 mi
3:35 am35 °FOvercast.6 mph72%29.87 "Hg10 mi
3:16 am35 °FOvercast.7 mph73%29.87 "Hg10 mi
2:55 am35 °FOvercast.8 mph72%29.87 "Hg10 mi
2:35 am34 °FOvercast.8 mph73%29.87 "Hg10 mi
2:16 am34 °FOvercast.8 mph72%29.85 "Hg10 mi
1:56 am34 °FOvercast.5 mph72%29.85 "Hg10 mi
1:35 am35 °FOvercast.7 mph71%29.83 "Hg10 mi
1:16 am35 °FOvercast.6 mph70%29.82 "Hg10 mi
12:55 am35 °FOvercast.7 mph71%29.82 "Hg10 mi
12:35 am35 °FOvercast.7 mph71%29.82 "Hg10 mi
12:16 am35 °FOvercast.8 mph71%29.80 "Hg10 mi
11:35 pm
Wed, Dec 4
35 °FOvercast.7 mph70%29.79 "Hg10 mi
11:16 pm35 °FMostly cloudy.8 mph72%29.78 "Hg10 mi
10:56 pm35 °FMostly cloudy.7 mph72%29.77 "Hg10 mi
10:36 pm35 °FOvercast.6 mph74%29.76 "Hg10 mi
10:16 pm35 °FPassing clouds.7 mph74%29.76 "Hg10 mi
9:56 pm35 °FMostly cloudy.6 mph75%29.75 "Hg10 mi
9:35 pm35 °FOvercast.9 mph75%29.74 "Hg10 mi
9:15 pm35 °FOvercast.10 mph76%29.74 "Hg10 mi
8:55 pm35 °FMostly cloudy.5 mph77%29.73 "Hg10 mi
8:35 pm35 °FLight snow. Overcast.6 mph78%29.73 "Hg7 mi
8:15 pm35 °FOvercast.9 mph76%29.72 "Hg10 mi
7:55 pm35 °FMostly cloudy.7 mph76%29.71 "Hg10 mi
7:35 pm35 °FOvercast.7 mph78%29.70 "Hg10 mi
7:16 pm35 °FOvercast.8 mph78%29.69 "Hg10 mi
6:55 pm35 °FOvercast.7 mph78%29.69 "Hg10 mi
6:35 pm35 °FLight snow. Overcast.9 mph77%29.68 "Hg10 mi
6:16 pm35 °FLight snow. Overcast.7 mph75%29.68 "Hg10 mi
5:55 pm35 °FLight snow. Overcast.8 mph75%29.67 "Hg10 mi
5:35 pm36 °FOvercast.8 mph72%29.65 "Hg10 mi
5:15 pm36 °FMostly cloudy.8 mph71%29.64 "Hg10 mi
4:55 pm36 °FMostly cloudy.10 mph72%29.63 "Hg10 mi
4:36 pm37 °FMostly cloudy.8 mph70%29.62 "Hg10 mi
4:16 pm37 °FCloudy.10 mph72%29.60 "Hg10 mi
3:56 pm38 °FMore clouds than sun.12 mph73%29.59 "HgN/A
Weather by CustomWeather, © 2019

See weather overview

Advertising